Terminal Aerodrome Forecast
Issued by NWS Cleveland, OH

Home | Current Version | Previous Version | Text Only | Print | Product List | Glossary On
Versions: 1 2 3 4 5 6 7 8 9 10 11 12 13 14 15 16 17 18 19 20 21 22 23 24 25 26 27 28 29 30 31 32 33 34 35
000
FTUS41 KCLE 211900 AAA
TAFCLE
TAF AMD
KCLE 211946Z 2120/2224 25008KT P6SM SCT020 BKN040
      TEMPO 2121/2124 6SM -TSRA BR BKN020CB BKN090
     FM220000 24008KT P6SM BKN035 BKN100
      TEMPO 2204/2206 3SM -TSRA BR BKN025CB OVC080
     FM220800 16006KT P6SM BKN035 OVC100
      TEMPO 2211/2215 1SM +TSRA BR BKN015CB OVC025
     FM221600 24007KT 6SM BR VCSH BKN030=

USA.gov is the U.S. government's official web portal to all federal, state and local government web resources and services.